Tracking 27079 objects as of 23-Mar-2023
HD Live streaming from Space Station
objects crossing your sky now

STARLINK-4252

Track STARLINK-4252 now!
10-day predictions
STARLINK-4252 is classified as:


NORAD ID: 53057
Int'l Code: 2022-077Q
Perigee: 568.8 km
Apogee: 571.5 km
Inclination: 97.7 °
Period: 95.9 minutes
Semi major axis: 6941 km
RCS: Unknown
Launch date: July 11, 2022
Source: United States (US)
Launch site: AIR FORCE WESTERN TEST RANGE (AFWTR)
Your satellite tracking list
Your tracking list is empty




NASA's NSSDC Master Catalog

Two Line Element Set (TLE):
1 53057U 22077Q   23082.51749218  .00001126  00000-0  92251-4 0  9993
2 53057  97.6566 264.8305 0001961  92.5986 267.5462 15.01264763 39138
Source of the keplerian elements: AFSPC